Regional Weather Roundup
Issued by NWS

Home | Current Version | Previous Version | Graphics & Text | Print | Product List | Glossary On
Versions: 1 2 3 4 5 6 7 8 9 10 11 12 13 14 15 16 17 18 19 20 21 22 23 24 25 26 27 28 29 30 31 32 33 34 35 36 37 38 39 40 41 42 43 44 45 46 47 48 49 50
000
ASUS43 KLSX 191607
RWRMO

WEATHER SUMMARY FOR MISSOURI
NATIONAL WEATHER SERVICE SPRINGFIELD MO
1100 AM CDT TUE AUG 19 2014

NOTE: "FAIR" INDICATES FEW OR NO CLOUDS BELOW 12,000 FEET WITH NO
       SIGNIFICANT WEATHER AND/OR OBSTRUCTIONS TO VISIBILITY.
       CURRENT SKY AND/OR WEATHER CONDITIONS ARE NOT AVAILABLE FOR
       CHILLICOTHE AND FARMINGTON.

MOZ001>031-035>038-043-044-053-054-191700-
...NORTHERN AND WESTERN MISSOURI...

CITY           SKY/WX    TMP DP  RH WIND       PRES   REMARKS
KANSAS CTY INT MOSUNNY   82  70  66 NW6       29.85R
KANSAS C DTWN  SUNNY     85  69  58 NW8       29.83R
LEE`S SUMMIT   MOSUNNY   82  68  62 S3        29.86R
ST JOSEPH      SUNNY     80  72  76 CALM      29.84R
CHILLICOTHE      N/A     80  70  71 VRB7      29.83R
KIRKSVILLE     PTSUNNY   79  68  69 SW6       29.81R

$$
MOZ066>068-077>081-088>096-101>105-191700-
...SOUTHWEST MISSOURI...

CITY           SKY/WX    TMP DP  RH WIND       PRES   REMARKS
SPRINGFIELD    PTSUNNY   83  65  54 SW3       29.91S
JOPLIN         MOSUNNY   87  66  49 SW12      29.89R

$$
MOZ032>034-039>042-045>050-055>058-069>072-191700-
...CENTRAL MISSOURI...

CITY           SKY/WX    TMP DP  RH WIND       PRES   REMARKS
COLUMBIA       PTSUNNY   78  71  79 SE9       29.83F
JEFFERSON CITY PTSUNNY   79  69  71 SE7       29.82F
ROLLA          PTSUNNY   77  69  76 SW7       29.87R
SEDALIA        PTSUNNY   77  70  79 SW7       29.86R
WHITEMAN AFB   PTSUNNY   73  64  72 W7        29.85F
OSAGE BEACH    PTSUNNY   82  70  65 SW8       29.87S

$$
MOZ051-052-059>065-191700-
...EAST CENTRAL MISSOURI...

CITY           SKY/WX    TMP DP  RH WIND       PRES   REMARKS
ST LOUIS INTL  PTSUNNY   75  67  76 CALM      29.87R THUNDER
SPIRIT OF STL  LGT RAIN  73  69  87 E8        29.81F
ST CHARLES     CLOUDY    72  68  87 S5        29.81F

$$
MOZ072>076-082>087-097>100-106>115-191700-
...SOUTH CENTRAL AND SOUTHEAST MISSOURI...

CITY           SKY/WX    TMP DP  RH WIND       PRES   REMARKS
CAPE GIRARDEAU MOSUNNY   82  75  79 S5        29.86S
FARMINGTON     PTSUNNY   84  73  70 NW6       29.90R HX  91
POPLAR BLUFF   SUNNY     83  72  69 S7        29.85F
WEST PLAINS    SUNNY     85  69  58 W7        29.93R

$$


USA.gov is the U.S. government's official web portal to all federal, state and local government web resources and services.